{"data":{"norad_id":64505,"epoch":"2026-05-25T00:38:36.915360Z","epoch_age_seconds":69794,"freshness":"FRESH","line1":"1 64505U 25134F   26145.02681615  .00000297  00000+0  67919-4 0  9995","line2":"2 64505  51.8995 267.9958 0000723  99.9925 260.1119 14.79933017 51202","mean_motion":14.79933017,"eccentricity":7.23e-5,"inclination_deg":51.8995,"raan_deg":267.9958,"arg_perigee_deg":99.9925,"mean_anomaly_deg":260.1119,"bstar":6.7919e-5,"rev_number":5120,"period_min":97.301701053947,"perigee_km":629.028920783,"apogee_km":630.04223023742,"semimajor_km":7007.6725755102,"source":"CELESTRAK","updated_at":"2026-05-25T13:38:04.572376Z"}}